Location: Newark
(9.4667°S, 159.8167°E)
Time: 21:33:58
(UTC+00:00)

Courier 1B Rocket - Pass Details

Date: 25 November 2019
Orbit: 920 x 1202 km, 28.2° (Epoch: 07 December)

Event Time Altitude Azimuth Distance (km) Brightness Sun altitude
Rises 09:06:31 0° 321° (NW) 4,022 8.4 -23.5°
Reaches altitude 10° 09:09:40 10° 331° (NNW) 3,089 7.6 -24.2°
Enters shadow 09:14:38 29° 8° (N) 2,018 6.3 -25.3°
Maximum altitude 09:16:23 32° 31° (NNE) 1,918 - -25.7°
Drops below altitude 10° 09:23:09 10° 91° (E) 3,123 - -27.1°
Sets 09:26:20 0° 101° (E) 4,073 - -27.8°
